Home   Weather   Midway   Past weeks

Flag for US Minor Outlying Islands Past Weather in Midway, US Minor Outlying Islands — Yesterday and Last 2 Weeks

Now
85 °F

Scattered clouds.


Feels Like: 92 °F
Forecast: 75 / 83 °F
Wind: 13 mph from East

Location: Midway Island Naval Air Facility

Current Time: Sep 26, 2016 at 1:13:48 PM

Latest Report: Sep 26, 2016 at 12:56 PM


Visibility: 10 mi

Pressure: 30.14 "Hg

Humidity: 70%

Dew Point: 74 °F

Location of MidwayLocation

Past Weather in Midway — Graph

°F

Midway Temperature Yesterday

Maximum temperature yesterday: 84 °F (at 11:34 AM)
Minimum temperature yesterday: 76 °F (at 6:56 AM)
Average temperature yesterday: 79 °F

High & Low Weather Summary for the Past Weeks

 TemperatureHumidityPressure
High87 °F (Sep 17, 12:56 PM)94% (Sep 20, 12:27 PM)30.22 "Hg (Sep 20, 12:27 PM)
Low75 °F (Sep 23, 5:56 AM)61% (Sep 19, 10:56 AM)30.08 "Hg (Sep 23, 3:56 AM)
Average80 °F78%30.15 "Hg
* Reported Sep 11 11:56 AM — Sep 26 11:56 AM, Midway, Weather by CustomWeather, © 2016

Note: Actual official high and low records may vary slightly from our data, if they occured in-between our weather recording intervals... More about our weather records

Advertising

Midway Weather History for the Previous 24 Hours

Scroll right to see more
 ConditionsComfort  
Time TempWeatherWind HumidityBarometerVisibility
11:56 AM
Mon, Sep 26
85 °FMostly cloudy.13 mph70%30.16 "Hg10 mi
11:25 AM84 °FMostly cloudy.13 mph70%30.17 "Hg10 mi
10:56 AM85 °FPartly sunny.13 mph68%30.18 "Hg10 mi
9:56 AM84 °FPassing clouds.10 mph72%30.19 "Hg10 mi
8:56 AM82 °FBroken clouds.13 mph74%30.19 "Hg10 mi
7:56 AM80 °FPassing clouds.12 mph79%30.17 "Hg10 mi
7:10 AM77 °FScattered clouds.10 mph83%30.16 "Hg10 mi
6:56 AM77 °FPartly sunny.10 mph85%30.15 "Hg10 mi
6:35 AM77 °FPassing clouds.9 mph83%30.15 "Hg10 mi
5:56 AM77 °FPassing clouds.7 mph85%30.15 "Hg10 mi
4:56 AM77 °FPassing clouds.8 mph85%30.14 "Hg10 mi
3:56 AM77 °FPassing clouds.9 mph85%30.14 "Hg10 mi
2:56 AM77 °FPassing clouds.10 mph85%30.15 "Hg10 mi
2:23 AM77 °FPassing clouds.10 mph83%30.16 "Hg10 mi
1:56 AM77 °FPassing clouds.10 mph82%30.16 "Hg10 mi
1:26 AM77 °FPassing clouds.9 mph83%30.17 "Hg10 mi
12:56 AM77 °FMostly cloudy.12 mph82%30.17 "Hg10 mi
11:56 PM
Sun, Sep 25
77 °FPassing clouds.13 mph79%30.19 "Hg10 mi
10:56 PM77 °FPassing clouds.13 mph77%30.19 "Hg10 mi
9:56 PM77 °FPassing clouds.13 mph74%30.20 "Hg10 mi
8:56 PM77 °FMostly cloudy.14 mph77%30.20 "Hg10 mi
7:56 PM77 °FOvercast.14 mph77%30.18 "Hg10 mi
6:56 PM77 °FMostly cloudy.16 mph74%30.17 "Hg10 mi
5:56 PM79 °FMore clouds than sun.14 mph72%30.16 "Hg10 mi
5:09 PM81 °FOvercast.20 mph70%30.16 "Hg10 mi
4:56 PM81 °FMostly cloudy.20 mph67%30.16 "Hg10 mi
3:56 PM83 °FOvercast.20 mph63%30.16 "Hg10 mi
2:56 PM82 °FMore clouds than sun.20 mph67%30.16 "Hg10 mi
1:56 PM84 °FOvercast.21 mph63%30.18 "Hg10 mi
Weather by CustomWeather, © 2016

See weather overviewHow to use our weather pages